Date,TemperatureHighF,TemperatureAvgF,TemperatureLowF,DewpointHighF,DewpointAvgF,DewpointLowF,HumidityHigh,HumidityAvg,HumidityLow,PressureMaxIn,PressureMinIn,WindSpeedMaxMPH,WindSpeedAvgMPH,GustSpeedMaxMPH,PrecipitationSumIn
2013-1-1,63.3,56.4,44.6,62.5,55.2,43.8,99,96,89,30.15,29.94,11,3,11,0.85
2013-1-2,44.6,40.9,37.0,43.8,38.2,31.9,99,90,81,30.27,30.12,10,3,10,0.00
2013-1-3,55.9,40.0,33.6,32.1,27.5,22.4,82,63,29,30.42,30.25,9,3,9,0.00
2013-1-4,54.7,46.4,32.4,31.5,25.9,20.7,81,49,29,30.49,30.39,7,3,7,0.00
2013-1-5,54.0,54.0,54.0,24.8,24.8,24.8,32,32,32,30.45,30.45,3,3,3,0.00
2013-1-6,54.0,54.0,54.0,24.8,24.8,24.8,32,32,32,30.45,30.45,3,3,3,0.00
2013-1-7,54.0,54.0,54.0,24.8,24.8,24.8,32,32,32,30.45,30.45,3,3,3,0.00
2013-1-8,54.0,54.0,54.0,24.8,24.8,24.8,32,32,32,30.45,30.45,3,3,3,0.00
2013-1-9,66.7,60.1,54.0,66.5,47.5,24.8,99,70,32,30.45,30.13,9,3,9,2.50
2013-1-10,68.5,65.1,61.5,67.7,64.4,61.0,99,97,93,30.19,29.97,21,4,21,0.92
2013-1-11,71.4,66.2,63.0,68.2,65.1,62.1,99,96,86,30.13,29.85,8,3,8,0.18
2013-1-12,79.5,71.0,68.0,69.0,67.3,64.4,99,89,65,30.06,29.92,17,6,17,0.01
2013-1-13,73.6,61.2,42.8,70.5,58.9,42.3,99,92,78,30.15,29.85,17,6,21,0.56
2013-1-14,43.2,39.2,34.0,42.6,38.8,33.2,99,98,96,30.21,30.09,14,4,14,0.74
2013-1-15,41.2,38.5,35.1,40.9,38.2,34.6,99,99,97,30.14,30.00,9,3,9,0.66
2013-1-16,35.6,34.3,33.3,34.9,33.8,33.0,99,98,97,30.17,30.04,12,4,12,0.07
2013-1-17,55.4,41.3,32.5,38.5,34.1,31.6,99,78,43,30.46,30.15,18,5,18,0.01
2013-1-18,69.4,45.3,32.4,38.5,31.0,22.6,99,65,19,30.57,29.86,9,2,9,0.00
2013-1-19,70.2,48.3,30.9,47.3,39.2,30.2,99,75,39,30.42,30.26,10,1,10,0.00
2013-1-20,75.4,51.4,35.6,53.0,38.0,27.2,99,68,19,30.30,30.16,6,1,6,0.00
2013-1-21,68.4,46.3,38.3,50.1,40.2,37.8,99,83,37,30.25,30.16,8,1,8,0.00
2013-2-5,75.4,61.2,53.1,59.6,55.1,51.4,99,82,46,30.07,29.96,4,1,4,0.00
2013-2-6,73.9,61.0,53.1,62.7,56.8,52.5,99,88,61,30.15,30.00,5,2,5,0.41
2013-2-7,70.5,60.5,52.7,60.0,56.7,52.2,99,89,61,29.98,29.86,10,2,10,0.70
2013-2-8,65.3,57.4,49.3,59.0,53.6,45.3,99,88,73,30.22,29.98,7,3,7,0.00
2013-2-9,72.3,54.3,39.7,55.7,48.0,39.2,98,81,49,30.27,30.08,6,3,6,0.00
2013-2-10,69.1,62.9,57.7,68.5,62.1,55.7,99,97,93,30.07,29.87,11,4,11,0.90
2013-2-11,60.8,53.7,51.1,60.3,53.2,50.8,99,98,97,30.20,30.00,11,3,11,2.43
2013-2-12,57.4,54.4,51.6,57.1,54.0,51.3,99,98,97,30.12,29.76,13,3,13,0.59
2013-2-13,53.1,47.9,36.7,52.3,42.5,34.6,98,83,60,30.11,29.87,13,4,13,0.01
2013-2-14,68.0,50.8,32.5,48.3,35.8,32.3,99,62,31,30.18,30.08,8,2,8,0.00
2013-2-15,71.6,52.9,34.7,54.0,38.0,33.7,99,62,26,30.21,30.11,10,3,10,0.00
2013-2-16,53.1,43.9,33.1,38.2,23.1,11.6,74,47,21,30.32,30.19,21,5,21,0.00
2013-2-17,69.6,47.1,30.6,38.6,28.0,21.0,80,51,23,30.37,30.21,12,4,12,0.00
2013-2-18,64.4,53.9,42.6,59.1,48.1,38.4,99,81,60,30.25,29.96,28,7,28,0.69
2013-2-19,68.5,55.6,42.1,59.6,38.8,22.0,99,60,21,30.28,29.97,13,4,13,0.13
2013-2-20,64.8,48.7,36.3,31.8,27.2,19.8,73,47,19,30.30,30.08,14,3,14,0.00
2013-2-21,68.5,57.8,46.8,68.0,48.4,26.2,99,73,44,30.08,29.76,20,6,20,1.58
2013-2-22,68.2,59.1,52.9,60.8,52.9,47.1,99,82,50,30.03,29.90,7,2,7,0.14
2013-2-23,66.4,55.3,45.3,52.5,48.8,42.1,98,80,55,30.01,29.89,9,3,9,0.00
2013-2-24,81.0,58.0,38.7,56.5,44.2,38.2,99,67,25,30.04,29.75,15,3,15,0.20
2013-2-25,68.2,61.3,55.2,62.8,59.8,45.6,99,95,73,29.80,29.45,15,4,15,0.31
2013-2-26,61.3,49.1,40.5,45.6,36.5,33.2,92,63,39,29.95,29.55,14,4,14,0.00
2013-2-27,75.0,54.4,36.3,49.8,37.9,29.6,99,61,23,30.07,29.94,17,3,17,0.00
2013-2-28,53.2,45.6,38.8,35.7,31.1,22.3,82,58,31,30.17,30.07,11,3,11,0.00
2013-3-1,59.9,44.4,32.9,35.3,30.6,25.9,94,62,31,30.20,30.09,16,4,16,0.00
2013-3-2,44.8,35.5,28.9,30.6,25.3,21.6,90,68,42,30.28,30.17,13,4,13,0.00
2013-3-3,62.4,42.3,25.3,30.8,22.6,14.6,84,52,19,30.30,30.13,8,2,8,0.00
2013-3-4,73.8,56.5,37.6,56.2,44.8,31.1,92,67,43,30.13,29.92,20,7,20,0.00
2013-3-5,74.5,61.7,49.3,62.1,48.9,26.6,91,66,26,30.23,29.91,18,6,18,0.00
2013-3-6,64.2,49.2,37.8,31.4,25.6,18.5,72,43,18,30.36,30.23,13,5,13,0.00
2013-3-7,70.9,50.6,33.6,38.2,32.0,26.6,82,54,20,30.38,30.25,8,2,8,0.00
2013-3-8,82.4,57.8,37.2,42.9,37.1,30.1,96,55,17,30.34,30.19,7,1,7,0.00
2013-3-9,72.7,61.2,50.7,58.6,50.0,41.4,89,68,45,30.20,29.97,18,5,18,0.00
2013-3-10,77.7,67.1,57.0,64.4,61.2,56.1,97,82,61,29.99,29.84,21,7,21,0.04
2013-3-11,63.0,50.1,41.5,55.8,42.2,34.7,99,78,39,30.07,29.90,15,4,15,1.45
2013-3-12,72.3,52.3,34.9,41.1,35.4,28.7,97,59,20,30.26,30.05,11,2,11,0.00
2013-3-13,68.4,53.6,41.9,37.0,27.9,17.2,81,43,15,30.43,30.25,16,4,16,0.00
2013-3-14,78.3,54.4,34.9,41.0,29.7,19.9,79,46,14,30.47,30.30,7,1,7,0.00
2013-3-15,82.9,62.6,42.8,49.0,40.2,29.2,90,50,18,30.32,30.11,14,3,14,0.00
2013-3-16,83.8,65.6,51.1,56.4,51.3,48.2,96,64,33,30.13,29.94,14,4,14,0.00
2013-3-17,82.4,66.3,54.9,63.8,57.9,52.1,99,76,44,30.00,29.81,13,4,13,0.00
2013-3-18,89.6,72.8,60.3,67.6,63.6,56.7,99,77,41,29.96,29.75,24,4,24,0.44
2013-3-19,84.6,63.7,47.7,60.0,40.7,30.8,99,50,18,30.09,29.96,11,4,11,0.00
2013-3-20,71.4,58.2,45.3,41.2,32.7,20.1,57,41,16,30.20,28.68,14,4,14,0.00
2013-3-21,70.7,54.4,42.6,41.3,31.3,22.3,66,45,20,30.11,29.88,8,2,8,0.00
2013-3-22,67.1,58.9,53.4,59.5,51.4,40.8,93,76,61,29.94,26.82,11,3,11,0.00
2013-3-23,73.8,65.0,61.7,68.0,63.5,59.9,99,95,80,29.86,29.60,8,2,8,0.17
2013-3-24,66.6,56.2,41.9,65.8,46.3,28.4,99,74,29,30.05,29.60,19,5,19,0.01
2013-3-25,58.5,45.0,33.4,30.2,22.9,13.0,75,46,19,30.30,30.05,17,6,17,0.00
2013-3-26,58.5,43.4,31.8,27.6,23.7,16.9,72,49,23,30.41,30.30,12,4,12,0.00
2013-3-27,70.5,49.1,29.7,32.8,26.2,19.3,85,48,16,30.46,30.30,7,1,7,0.00
2013-3-28,80.8,57.9,36.0,43.1,34.0,23.9,91,48,14,30.39,30.24,7,2,7,0.00
2013-3-29,83.7,63.1,43.3,53.6,44.6,33.9,94,58,21,30.33,30.18,13,3,13,0.00
2013-3-30,81.5,64.2,51.3,57.9,53.5,48.0,98,72,36,30.21,29.99,14,3,14,0.04
2013-3-31,71.8,61.5,56.7,66.0,59.1,55.4,99,92,72,30.06,29.85,21,2,21,0.15
2013-4-1,86.4,65.0,54.1,67.1,53.7,44.1,99,72,31,30.12,29.97,8,2,8,0.01
2013-4-2,87.8,66.3,50.7,54.9,51.5,47.2,96,64,31,30.15,30.00,11,2,11,0.00
2013-4-3,64.4,53.8,48.0,55.3,51.5,47.8,99,92,68,30.06,29.85,13,3,13,1.10
2013-4-4,54.1,49.6,45.9,51.1,48.1,44.5,99,95,83,30.07,29.94,10,3,10,0.00
2013-4-5,72.5,56.3,44.4,49.2,46.1,43.2,97,72,43,30.21,30.06,10,4,10,0.00
2013-4-6,80.4,61.6,43.2,53.5,48.0,42.6,99,67,33,30.17,30.05,8,3,8,0.00
2013-4-7,80.8,66.6,54.1,59.5,55.6,53.2,99,71,40,30.12,29.99,10,4,10,0.00
2013-4-8,85.8,75.4,60.1,66.3,62.3,58.8,99,66,43,30.04,29.96,15,6,15,0.00
2013-4-9,88.5,75.7,70.0,70.7,68.1,65.5,91,79,51,30.04,29.93,17,7,17,0.00
2013-4-10,88.0,78.1,71.2,70.4,68.2,66.5,88,73,53,30.00,29.86,17,7,17,0.00
2013-4-11,76.8,63.1,48.6,70.9,59.7,48.3,99,89,75,29.88,29.67,11,4,11,0.43
2013-4-12,79.0,59.9,42.3,50.3,43.5,36.9,99,63,22,30.03,29.88,5,2,5,0.00
2013-4-13,87.4,67.6,49.3,52.8,44.7,37.0,87,51,20,30.07,29.89,6,2,6,0.00
2013-4-14,80.1,64.6,56.3,63.8,58.5,53.3,99,83,51,29.94,29.77,10,3,10,1.26
2013-4-15,87.8,76.3,59.2,72.6,68.4,58.9,99,79,51,30.00,29.84,13,4,13,0.01
2013-4-16,90.3,77.6,70.9,72.5,70.2,65.8,98,80,46,30.12,29.99,15,5,15,0.00
2013-4-17,90.3,77.3,70.5,70.6,68.8,66.5,93,77,47,30.13,29.96,15,5,15,0.00
2013-4-18,84.0,73.2,69.4,70.5,68.2,66.8,93,85,64,29.97,29.87,14,6,14,0.00
2013-4-19,64.0,52.3,45.7,55.3,41.7,35.6,99,70,37,30.21,29.89,11,4,11,0.11
2013-4-20,78.3,58.6,40.3,42.9,38.1,29.4,94,54,21,30.30,30.15,5,2,5,0.00
2013-4-21,82.4,62.9,45.0,46.0,40.9,36.4,85,51,21,30.27,30.14,6,2,6,0.00
2013-4-22,88.2,75.3,50.0,61.4,53.1,44.7,91,50,29,30.18,30.02,8,3,8,0.00
2013-4-23,88.2,72.6,64.2,65.8,63.0,60.8,91,74,42,30.12,29.98,11,5,11,0.00
2013-4-24,69.1,60.6,52.7,67.1,57.7,49.3,98,90,82,30.25,30.01,8,3,8,0.71
2013-4-25,79.2,59.5,50.0,51.8,46.7,36.8,98,68,27,30.35,30.23,8,2,8,0.00
2013-4-26,86.0,67.8,51.8,61.6,53.4,43.4,86,63,31,30.30,30.20,9,2,9,0.00
2013-4-27,85.5,73.1,63.7,68.5,64.9,60.8,98,77,51,30.21,30.03,12,3,12,0.01
2013-4-28,78.8,70.1,62.4,71.7,65.2,59.3,99,85,60,30.09,29.96,11,2,11,0.17
2013-4-29,90.7,72.7,56.1,71.9,58.4,52.6,99,67,29,30.02,29.90,7,1,7,0.00
2013-4-30,81.1,68.1,61.7,69.0,64.5,59.5,99,89,61,29.97,29.89,8,2,11,0.46
2013-5-1,87.1,68.9,64.4,71.9,65.4,62.3,99,90,51,29.95,29.86,14,2,14,0.31
2013-5-2,81.0,67.7,63.9,69.9,64.5,62.7,97,90,62,30.00,29.89,6,1,6,0.08
2013-5-3,66.0,55.3,41.5,65.4,53.4,40.9,99,93,81,30.07,29.91,10,2,10,0.12
2013-5-4,79.0,57.7,36.9,52.0,41.2,34.9,99,62,21,30.05,29.88,9,2,9,0.00
2013-5-5,65.1,54.4,46.0,49.2,43.3,38.4,92,68,40,30.05,29.89,11,3,11,0.00
2013-5-6,78.6,61.5,44.8,54.6,48.8,43.3,96,67,37,30.05,29.95,9,2,9,0.00
2013-5-7,86.5,70.4,52.0,60.0,55.0,51.4,99,63,35,30.08,29.99,7,1,7,0.00
2013-5-8,90.9,73.0,54.9,64.6,57.7,53.6,99,65,30,30.15,30.04,7,1,7,0.00
2013-5-9,89.8,73.7,60.3,67.0,62.4,58.8,97,71,36,30.16,30.04,10,3,10,0.00
2013-5-10,85.1,69.6,62.4,68.2,64.2,61.7,99,85,47,30.09,29.83,17,3,17,1.28
2013-5-11,80.4,70.1,62.4,69.0,64.1,61.8,99,83,61,30.09,29.97,6,1,6,0.01
2013-5-12,87.1,68.6,55.6,62.8,55.7,45.4,99,67,39,30.19,30.07,6,2,6,0.00
2013-5-13,89.1,68.0,49.1,52.8,45.5,35.6,82,50,19,30.33,30.18,8,1,8,0.00
2013-5-14,93.0,72.6,55.4,60.2,55.0,51.8,90,59,28,30.30,30.15,8,1,8,0.00
2013-5-15,90.7,74.0,57.6,65.4,58.3,54.7,93,62,34,30.23,30.04,11,2,11,0.00
2013-5-16,86.7,76.1,60.3,66.6,63.0,57.4,94,65,43,30.07,29.92,11,4,11,0.01
2013-5-17,91.6,78.1,69.8,71.5,69.2,66.2,95,76,49,30.05,29.96,9,3,9,0.00
2013-5-18,94.5,85.5,75.0,71.6,69.3,67.6,83,60,44,30.07,30.00,8,3,9,0.00
2013-5-19,91.2,77.8,70.3,73.6,70.2,68.1,95,79,48,30.03,29.95,9,4,9,0.00
2013-5-20,96.6,82.1,73.8,73.5,71.3,68.4,94,72,42,30.04,29.92,11,4,11,0.00
2013-5-21,95.2,82.2,73.2,74.4,70.6,66.2,95,71,41,30.00,29.83,14,4,14,0.00
2013-5-22,88.2,74.0,65.5,71.6,68.0,64.4,99,83,48,30.00,29.91,11,2,11,1.11
2013-5-23,97.0,80.5,67.3,79.4,69.1,65.5,99,72,40,30.09,29.98,6,1,6,0.00
2013-5-24,93.6,80.3,70.0,71.6,67.2,62.6,94,68,42,30.21,30.07,4,1,4,0.00
2013-5-25,97.5,76.7,61.7,62.6,57.5,52.1,77,55,30,30.28,30.16,6,1,7,0.00
2013-5-26,95.5,77.1,62.2,67.9,60.5,53.3,93,61,28,30.23,30.13,8,2,8,0.00
2013-5-27,94.3,78.3,62.8,68.7,64.0,60.5,94,65,37,30.16,30.05,11,3,11,0.00
2013-5-28,95.0,78.3,66.0,67.6,64.3,60.7,91,65,39,30.11,30.01,14,3,14,0.00
2013-5-29,90.5,78.0,70.7,74.0,70.3,64.1,95,78,51,30.06,29.97,11,4,11,0.00
2013-5-30,91.8,79.2,73.8,76.1,72.4,69.7,95,81,51,30.04,29.96,13,4,13,0.05
2013-5-31,94.6,81.4,74.1,75.3,72.8,69.7,97,77,48,30.05,29.96,12,4,12,0.02
2013-6-1,98.4,83.3,74.3,75.0,72.2,68.8,95,72,42,30.01,29.93,9,3,9,0.00
2013-6-2,90.9,77.4,67.1,74.0,69.9,65.3,98,80,47,30.07,29.91,10,2,10,0.45
2013-6-3,97.2,81.3,71.1,74.1,70.7,68.1,97,73,41,29.98,29.89,4,1,4,0.00
2013-6-4,103.5,83.2,70.7,76.0,71.7,67.8,95,71,37,29.99,29.88,7,1,7,0.00
2013-6-5,99.0,82.3,73.0,76.7,72.5,65.3,98,75,40,29.98,29.81,10,2,10,0.00
2013-6-6,96.3,78.7,70.7,75.7,70.7,61.6,96,79,45,29.91,29.80,15,2,15,0.05
2013-6-7,92.1,76.4,69.4,70.5,67.8,63.3,95,77,44,29.93,29.81,7,1,7,0.00
2013-6-8,96.6,78.1,67.6,72.1,68.2,64.7,98,76,40,30.00,29.92,8,1,8,0.45
2013-6-9,98.1,78.4,68.9,75.1,70.1,67.4,99,79,39,30.01,29.91,8,2,8,0.07
2013-6-10,99.7,82.6,69.8,76.4,70.8,66.8,97,71,38,30.06,29.98,8,2,8,0.00
2013-6-11,101.8,85.3,73.8,79.1,72.7,68.3,98,70,38,30.14,30.04,6,1,6,0.00
2013-6-12,103.6,87.9,74.1,80.6,71.6,67.3,98,62,35,30.14,30.03,7,1,7,0.00
2013-6-13,100.6,85.1,73.8,76.9,72.5,68.7,97,69,39,30.10,29.93,5,1,5,0.00
2013-6-14,99.9,84.7,72.9,76.5,71.1,64.3,89,66,39,30.00,29.91,6,1,6,0.00
2013-6-15,73.0,70.7,69.1,66.2,65.0,64.4,86,82,78,30.01,29.98,2,0,2,0.00
2013-6-16,100.4,84.4,73.6,76.7,73.1,69.7,94,71,43,30.09,30.00,4,2,4,0.00
2013-6-17,99.9,88.9,75.0,76.5,70.7,66.8,94,58,36,30.06,29.95,11,2,11,0.00
2013-6-18,99.7,82.1,70.2,75.2,71.5,68.3,98,73,40,30.05,29.92,11,2,11,0.26
2013-6-19,95.4,78.9,70.0,77.8,71.4,68.7,99,81,44,30.08,29.97,8,1,8,0.07
2013-6-20,99.9,81.6,70.7,80.8,71.6,67.7,98,76,38,30.15,30.04,10,1,10,0.50
2013-6-21,100.0,83.3,69.3,79.4,70.5,67.1,99,69,36,30.17,30.07,4,1,4,0.01
2013-6-22,100.6,83.3,72.0,73.9,70.3,65.2,97,69,36,30.15,30.04,11,2,11,0.13
2013-6-23,102.0,83.7,70.7,78.6,71.2,67.4,98,70,37,30.12,30.04,8,2,8,0.00
2013-6-24,98.6,79.8,72.9,78.2,72.7,69.6,97,82,41,30.18,30.06,8,1,8,0.28
2013-6-25,97.2,81.6,71.8,80.5,73.5,70.7,98,79,44,30.14,30.03,11,2,11,0.32
2013-6-26,101.8,85.1,71.8,79.3,72.2,68.7,97,69,39,30.11,29.98,7,1,7,0.00
2013-6-27,100.8,85.7,73.4,75.9,72.6,67.8,96,68,38,30.06,29.94,6,1,6,0.00
2013-6-28,99.3,84.3,72.3,76.2,73.7,66.4,92,72,42,29.98,29.79,14,1,14,0.07
2013-6-29,96.8,78.1,70.5,77.5,71.8,66.0,97,83,49,29.89,29.73,8,1,8,0.01
2013-6-30,99.0,81.6,68.0,75.2,66.0,54.6,99,65,30,29.86,29.76,8,2,8,0.00
2013-7-1,94.6,79.7,67.1,69.0,64.0,59.6,90,62,37,29.97,29.84,6,1,6,0.00
2013-7-2,96.6,79.5,66.7,69.7,65.0,62.3,93,64,38,30.06,29.94,5,1,5,0.00
2013-7-3,96.3,77.7,67.8,71.8,67.2,63.3,95,73,40,30.08,29.98,7,1,7,0.04
2013-7-4,97.0,79.2,68.4,72.7,69.6,66.3,99,76,41,30.04,29.95,6,1,6,0.00
2013-7-5,85.8,76.0,70.2,74.7,71.1,67.9,97,85,67,30.06,29.98,12,2,12,0.18
2013-7-6,95.2,78.7,69.4,73.7,70.6,67.6,97,79,44,30.07,29.98,11,2,11,0.00
2013-7-7,99.1,80.0,73.8,76.1,72.8,70.4,94,81,42,30.14,30.02,10,2,10,0.00
2013-7-8,101.3,81.4,72.1,75.7,72.5,69.5,98,78,40,30.20,30.09,8,2,8,0.00
2013-7-9,101.3,82.8,72.1,78.4,72.8,69.6,97,76,38,30.23,30.10,9,1,9,0.26
2013-7-10,100.2,85.6,74.3,79.0,73.6,70.7,98,71,41,30.15,29.99,9,1,9,0.01
2013-7-11,96.6,76.6,70.5,76.0,72.0,68.2,98,87,50,30.07,29.94,11,2,11,0.59
2013-7-12,100.8,82.8,70.0,76.4,69.9,64.3,98,70,34,30.00,29.90,5,1,5,0.00
2013-7-13,99.3,81.7,69.1,71.7,68.4,65.1,91,66,40,29.99,29.92,4,1,4,0.00
2013-7-14,98.4,78.4,70.0,74.1,70.6,67.6,94,79,41,30.06,29.95,11,1,11,0.02
2013-7-15,96.8,79.8,69.8,74.9,70.8,68.0,94,77,41,30.17,30.04,8,2,8,0.00
2013-7-16,93.6,79.5,71.2,75.0,72.2,70.1,97,80,51,30.23,30.13,14,2,14,0.00
2013-7-17,99.5,82.2,72.0,78.6,72.8,68.7,97,77,38,30.27,30.15,7,1,7,0.00
2013-7-18,101.1,80.1,70.9,73.6,70.8,65.0,96,77,36,30.23,30.05,8,1,8,0.06
2013-7-19,99.7,83.3,70.5,79.3,70.9,64.7,97,70,36,30.12,29.98,8,1,8,0.00
2013-7-20,102.6,80.8,71.4,78.2,71.0,68.4,96,75,39,30.03,29.96,9,1,9,0.00
2013-7-21,98.6,79.9,72.7,78.4,72.7,69.8,97,80,41,30.09,30.00,9,2,9,0.13
2013-7-22,98.6,79.2,73.6,77.5,73.2,71.2,95,84,44,30.09,30.01,8,2,9,0.06
2013-7-23,98.1,84.5,74.8,77.7,73.9,69.4,97,73,42,30.09,29.94,9,2,9,0.00
2013-7-24,96.6,83.0,72.9,76.1,72.6,68.2,95,73,44,30.01,29.91,15,2,15,0.02
2013-7-25,98.8,81.3,72.0,75.7,71.0,66.7,99,74,39,30.08,29.95,4,2,4,0.00
2013-7-26,99.0,82.6,67.6,71.7,67.9,63.8,94,65,33,30.11,29.99,5,1,5,0.00
2013-7-27,86.4,77.9,74.3,80.2,74.4,71.0,97,89,65,30.00,29.89,8,1,8,0.94
2013-7-28,96.3,81.3,71.2,74.3,72.0,68.7,98,76,43,30.06,29.92,4,1,4,0.00
2013-7-29,101.7,86.0,73.2,76.4,72.8,69.1,98,69,39,30.15,30.03,5,1,5,0.00
2013-7-30,101.3,86.4,75.0,77.8,73.9,70.0,97,69,40,30.19,30.09,6,1,6,0.00
2013-7-31,101.1,86.4,76.5,75.8,72.9,67.1,92,67,39,30.15,29.99,7,1,7,0.00
2013-8-1,98.8,83.0,75.4,79.1,74.4,71.3,95,78,43,30.07,29.94,6,2,6,0.22
2013-8-2,102.6,85.3,73.0,78.4,72.6,69.3,98,70,39,30.05,29.97,6,1,6,0.00
2013-8-3,101.1,85.8,75.0,77.8,73.8,69.3,96,70,39,30.11,30.02,6,1,6,0.00
2013-8-4,103.6,87.3,75.6,77.5,73.3,68.9,95,67,36,30.14,30.01,6,1,6,0.00
2013-8-5,103.1,87.5,76.3,76.7,73.6,69.0,92,67,38,30.09,29.98,8,2,8,0.00
2013-8-6,104.5,88.0,75.7,78.3,72.6,66.9,95,64,33,30.05,29.93,8,1,8,0.00
2013-8-7,105.6,88.6,76.5,78.5,72.7,67.9,94,63,31,30.03,29.91,8,1,8,0.00
2013-8-8,105.8,88.7,76.8,76.8,73.5,70.2,92,64,35,30.01,29.91,11,2,11,0.00
2013-8-9,104.4,84.4,76.6,78.8,74.1,69.4,93,74,37,30.08,29.97,16,2,16,0.00
2013-8-10,104.4,85.3,76.6,79.3,73.1,66.1,94,71,33,30.13,30.02,11,2,11,0.00
2013-8-11,102.2,84.8,74.1,78.2,73.2,68.7,97,72,37,30.16,30.08,14,2,14,0.00
2013-8-12,102.4,81.9,73.4,79.5,73.2,69.2,96,79,38,30.15,30.03,11,2,11,0.21
2013-8-13,97.3,78.6,71.4,79.4,73.6,70.7,98,86,50,30.08,29.96,15,2,15,0.93
2013-8-14,94.8,75.6,71.2,77.3,73.0,70.6,99,92,54,30.03,29.94,6,1,6,0.71
2013-8-15,96.3,80.2,69.8,75.3,70.6,67.1,99,76,43,30.05,29.95,4,1,4,0.01
2013-8-16,96.1,80.3,69.1,73.6,69.7,67.2,97,73,41,30.04,29.95,4,1,4,0.25
2013-8-17,90.0,75.6,68.5,73.9,69.6,67.3,99,83,52,30.03,29.97,8,1,8,0.01
2013-8-18,85.5,74.2,69.1,73.0,70.1,68.1,98,88,60,30.07,30.00,5,2,5,0.02
2013-8-19,94.3,77.7,72.0,73.5,71.4,68.5,97,83,47,30.09,30.01,4,1,4,0.00
2013-8-20,102.6,81.0,70.0,79.3,71.7,67.7,98,78,35,30.11,29.85,8,1,8,0.01
2013-8-21,98.1,79.9,71.2,79.8,72.7,69.5,98,81,42,30.17,30.07,8,2,8,0.05
2013-8-22,99.7,84.8,72.7,79.8,72.4,68.0,98,70,39,30.14,30.01,7,1,7,0.00
2013-8-23,99.5,84.1,72.7,77.7,72.0,68.4,98,71,38,30.07,29.97,10,2,10,0.00
2013-8-24,96.4,79.4,71.2,75.2,72.0,67.7,97,81,44,30.16,30.02,14,2,14,0.00
2013-8-25,95.2,80.0,70.0,75.1,71.9,69.1,97,78,46,30.22,30.12,9,2,9,0.00
2013-8-26,98.1,80.6,71.6,72.7,70.6,66.4,96,75,38,30.25,30.17,8,2,8,0.00
2013-9-6,99.7,83.2,72.5,77.1,72.0,68.2,97,73,38,30.15,30.03,4,1,4,0.00
2013-9-7,102.0,83.8,71.1,74.4,69.9,66.1,97,68,35,30.10,29.99,4,1,4,0.00
2013-9-8,101.7,84.0,69.3,73.7,68.6,64.2,98,65,32,30.05,29.97,4,1,4,0.00
2013-9-9,100.6,83.7,69.6,72.8,69.0,66.6,95,66,36,30.09,29.99,4,1,4,0.00
2013-9-10,99.9,79.1,71.1,74.2,70.6,68.2,95,79,39,30.17,30.06,4,1,4,0.00
2013-9-11,101.1,86.5,77.7,70.3,67.7,66.0,78,56,34,30.11,30.07,7,2,7,0.00
2013-9-12,103.3,91.7,69.8,75.3,65.9,64.2,96,46,31,30.10,29.95,4,2,4,0.00
2013-9-13,100.8,89.3,73.9,72.9,68.1,64.8,94,54,33,29.99,29.86,8,2,8,0.00
2013-9-14,100.4,82.4,67.6,72.5,64.0,58.5,94,58,27,30.02,29.91,5,2,5,0.00
2013-9-15,100.6,82.3,68.4,71.3,65.6,59.0,81,60,36,30.09,30.00,8,2,8,0.00
2013-9-16,102.6,84.1,71.1,75.3,69.9,65.0,95,66,33,30.13,30.03,9,2,9,0.00
2013-9-17,102.9,84.5,70.0,72.4,66.3,60.1,92,60,26,30.14,30.00,9,1,9,0.00
2013-9-18,99.9,81.3,71.1,73.3,69.0,65.2,91,69,38,30.12,30.00,11,2,11,0.00
2013-9-19,98.1,79.5,71.4,75.5,72.0,68.4,97,81,42,30.09,29.99,14,2,14,0.07
2013-9-20,97.5,80.2,73.8,77.6,74.1,70.0,99,84,42,30.04,29.83,10,2,10,0.04
2013-9-21,77.7,77.5,77.4,76.5,76.3,76.0,96,96,95,29.84,29.81,4,2,4,0.11
2013-9-22,89.6,73.4,62.1,69.0,60.3,52.8,99,69,31,29.87,29.80,5,2,5,0.00
2013-9-23,98.6,82.3,61.9,73.9,69.6,56.2,91,68,41,29.90,29.82,6,2,6,0.00
2013-9-24,82.0,76.2,70.5,78.9,74.0,70.0,98,93,83,29.90,29.81,7,2,7,0.20
2013-9-25,95.4,77.8,66.7,80.1,65.3,10.3,99,71,10,29.88,29.80,7,1,7,0.00
2013-9-26,97.0,76.7,62.2,77.0,63.9,60.8,99,70,31,29.99,29.84,5,1,5,0.00
2013-9-27,96.6,78.3,67.6,74.9,67.6,63.5,99,73,39,30.07,29.96,8,1,8,0.00
2013-9-28,97.3,77.3,65.5,67.3,64.1,60.1,95,68,35,30.11,30.03,6,1,6,0.00
2013-9-29,78.1,70.4,63.9,71.7,66.6,59.9,95,88,74,30.07,29.97,4,1,4,0.01
2013-9-30,85.6,75.0,67.8,72.2,68.8,64.4,94,82,63,30.00,29.93,6,2,6,0.01
2013-10-1,91.8,80.5,68.9,72.7,69.4,68.0,98,72,47,30.08,29.97,7,4,7,0.00
2013-10-2,87.3,85.0,80.4,74.6,70.8,69.2,78,63,57,30.10,30.00,6,4,6,0.04
2013-10-3,95.0,85.3,83.7,70.9,70.2,67.0,65,61,44,30.08,29.97,7,3,7,0.04
2013-10-4,93.2,83.9,73.8,72.2,70.4,67.6,93,65,44,30.08,29.97,11,4,11,0.00
2013-10-5,92.8,79.3,72.0,76.5,71.7,67.9,98,79,50,30.05,29.93,8,2,10,0.05
2013-10-6,78.4,69.5,58.3,74.1,64.4,53.0,98,84,63,29.99,29.88,7,2,7,0.01
2013-10-7,81.9,64.9,53.2,54.4,52.1,47.5,92,66,38,30.08,29.97,8,2,8,0.00
2013-10-8,86.5,65.7,52.3,55.4,52.9,48.7,96,68,30,30.09,30.01,4,1,4,0.00
2013-10-9,93.4,70.2,52.0,69.1,58.6,51.4,99,72,33,30.14,30.03,5,1,5,0.00
2013-10-10,81.9,73.2,65.5,69.7,66.0,64.2,99,80,55,30.15,30.01,4,1,4,0.00
2013-10-11,96.8,75.0,65.5,73.1,67.8,63.9,99,82,40,30.10,29.99,5,1,5,0.00
2013-10-12,99.5,77.5,65.1,74.3,68.2,63.3,99,77,34,30.10,30.00,6,1,6,0.00
2013-10-13,73.6,72.5,71.6,70.3,69.8,69.5,93,91,89,30.10,30.08,2,0,2,0.00
2013-10-14,93.9,79.1,65.5,68.3,63.0,60.3,96,61,35,30.17,30.05,4,1,4,0.00
2013-10-15,94.5,81.3,63.0,68.6,64.5,61.5,96,62,39,30.09,29.96,8,2,8,0.00
2013-10-16,94.5,86.5,73.8,70.5,67.6,65.8,88,57,39,30.03,29.92,7,2,7,0.00
2013-10-17,73.8,65.4,56.5,70.4,63.4,56.0,99,93,78,30.06,29.93,4,1,4,0.07
2013-10-18,81.9,64.1,51.8,66.0,55.1,51.3,99,76,38,30.09,29.95,6,1,6,0.01
2013-10-19,80.2,63.9,54.0,63.3,57.4,52.5,99,81,44,30.07,29.93,5,1,5,0.15
2013-10-20,86.9,61.2,47.5,53.5,51.0,47.2,99,74,30,30.11,29.99,4,1,4,0.00
2013-10-21,78.4,62.8,50.0,61.8,56.1,49.1,99,81,52,30.09,29.97,5,1,5,0.00
2013-10-22,81.3,66.0,56.1,65.6,58.8,53.2,99,80,46,30.03,29.96,5,1,5,0.00
2013-10-23,83.3,62.4,50.7,53.4,47.2,35.9,95,64,20,30.17,30.03,6,2,6,0.00
2013-10-24,88.3,64.3,46.9,56.0,49.6,44.1,96,65,28,30.26,30.12,7,1,7,0.00
2013-10-25,77.2,58.0,46.8,51.8,41.9,35.4,86,60,23,30.44,30.25,7,2,7,0.00
2013-10-26,86.2,59.7,41.5,50.2,41.6,31.9,87,58,20,30.34,30.16,5,1,5,0.00
2013-10-27,75.4,62.5,50.9,59.7,54.0,47.1,99,75,50,30.17,30.06,8,2,8,0.00
2013-10-28,91.9,72.3,61.3,65.5,61.8,58.8,93,72,37,30.21,30.07,8,2,8,0.00
2013-10-29,84.4,70.7,59.5,66.4,62.1,59.0,99,77,44,30.26,30.18,9,2,9,0.00
2013-10-30,78.6,70.3,63.1,68.3,65.2,62.2,98,85,64,30.23,30.02,10,3,10,0.00
2013-10-31,75.9,70.2,63.3,70.9,68.2,62.5,99,94,83,30.03,29.78,16,4,16,0.79
2013-11-1,80.8,64.9,52.7,64.1,55.6,46.3,99,76,32,29.97,29.84,5,1,5,0.00
2013-11-2,75.4,59.9,48.9,53.9,46.9,38.0,99,67,28,30.21,29.94,7,2,7,0.00
2013-11-3,79.0,55.1,42.4,46.9,43.3,38.6,98,70,27,30.28,30.15,8,1,8,0.00
2013-11-4,79.9,58.5,43.3,56.0,50.0,42.8,99,77,40,30.29,30.17,7,1,7,0.00
2013-11-5,83.8,65.4,57.9,59.7,56.4,52.6,97,74,43,30.26,30.13,11,2,11,0.00
2013-11-6,85.8,68.6,56.1,70.7,63.3,54.7,99,85,54,30.15,30.07,10,2,10,0.08
2013-11-7,66.4,54.3,44.2,64.1,45.5,38.5,99,76,37,30.37,30.12,10,3,10,0.01
2013-11-8,74.7,53.1,40.6,43.2,38.4,33.1,85,62,24,30.38,30.21,8,2,8,0.00
2013-11-9,77.9,58.6,45.5,51.8,46.3,38.7,85,66,39,30.28,30.18,49,1,49,0.00
2013-11-10,81.5,61.6,50.9,54.3,49.6,43.3,96,69,29,30.31,30.21,4,1,4,0.00
2013-11-11,85.3,61.7,46.2,61.0,49.4,45.1,99,71,27,30.27,30.15,4,1,4,0.00
2013-11-12,72.0,52.1,35.8,53.2,44.4,27.0,94,76,50,30.54,30.21,100,3,100,0.00
2013-11-13,61.0,44.7,30.7,29.4,23.4,18.5,75,49,19,30.58,30.44,6,2,6,0.00
2013-11-14,73.0,52.5,29.8,44.4,35.3,23.3,82,54,34,30.44,28.88,7,1,7,0.00
2013-11-15,79.9,69.4,53.2,65.4,53.8,43.3,99,60,47,30.17,30.00,4,2,4,0.30
2013-11-16,79.9,79.9,79.9,60.2,60.2,60.2,51,51,51,30.07,29.95,3,3,3,0.30
2013-11-17,79.9,79.9,79.9,60.2,60.2,60.2,51,51,51,29.98,29.87,3,3,3,0.30
2013-11-18,79.9,79.9,79.9,60.2,60.2,60.2,51,51,51,30.15,29.97,3,3,3,0.30
2013-11-19,79.9,79.9,79.9,60.2,60.2,60.2,51,51,51,30.21,30.09,3,3,3,0.30
2013-11-20,79.9,79.9,79.9,60.2,60.2,60.2,51,51,51,30.15,30.04,3,3,3,0.30
2013-11-21,79.9,70.7,58.6,63.7,61.5,58.2,99,76,51,30.23,30.13,9,3,9,0.02
2013-11-22,76.8,60.1,0.0,67.6,64.1,62.7,99,87,71,30.30,30.16,7,2,7,0.20
2013-11-23,63.5,54.7,41.7,62.7,53.6,36.8,99,96,84,30.40,30.20,8,2,8,0.12
2013-11-24,54.7,43.4,33.8,36.9,25.7,22.0,83,53,28,30.46,30.33,97,4,97,0.00
2013-11-25,38.1,38.1,38.1,23.8,23.8,23.8,56,56,56,30.34,29.96,4,4,4,0.00
2013-11-26,38.1,38.1,38.1,23.8,23.8,23.8,56,56,56,30.09,29.79,4,4,4,0.00
2013-11-27,45.3,38.4,26.1,29.6,23.8,20.4,84,57,41,30.43,30.09,25,5,25,0.01
2013-11-28,37.8,33.1,24.1,29.6,20.9,19.4,87,62,51,30.50,30.40,4,3,4,0.00
2013-11-29,65.8,52.0,27.3,40.1,26.0,20.3,99,44,22,30.56,30.44,4,1,4,0.00
2013-11-30,65.8,65.8,65.8,27.0,27.0,27.0,23,23,23,30.47,30.27,1,1,1,0.00
2013-12-1,65.8,2.7,0.0,27.0,27.0,27.0,23,1,23,30.28,30.00,1,0,1,0.00
2013-12-2,76.3,27.7,0.0,62.2,40.9,27.0,97,35,60,30.08,29.76,9,1,9,0.00
2013-12-3,80.4,68.7,61.7,66.7,62.8,59.7,97,83,52,29.83,29.71,14,3,14,0.00
2013-12-4,81.1,72.5,68.2,69.2,66.5,64.1,94,82,59,29.96,29.82,11,4,11,0.00
2013-12-5,83.8,74.6,70.2,71.2,68.8,66.4,94,83,58,30.05,29.93,12,4,12,0.00
2013-12-6,73.6,49.2,35.4,70.8,48.0,34.3,99,96,78,30.31,29.95,11,3,11,0.15
2013-12-7,36.3,34.3,31.6,35.6,32.5,30.5,99,93,84,30.41,30.29,10,3,10,0.00
2013-12-8,45.7,40.9,36.1,44.9,40.4,35.4,99,98,97,30.30,30.07,5,1,5,2.88
2013-12-9,47.7,44.6,38.1,46.7,43.9,37.7,99,97,92,30.20,30.10,7,2,7,0.07
2013-12-10,54.5,38.7,31.5,37.7,31.9,27.5,99,79,41,30.42,30.19,14,3,14,0.18
2013-12-11,63.1,45.7,30.2,46.0,36.6,27.3,93,72,45,30.60,30.37,5,2,5,0.00
2013-12-12,60.8,43.3,32.5,32.2,24.0,14.1,83,52,19,30.68,30.52,8,2,8,0.00
2013-12-13,61.2,47.2,31.6,51.7,38.3,19.2,89,72,42,30.53,30.07,11,2,11,0.00
2013-12-14,72.7,58.1,43.2,65.3,53.5,40.1,99,86,60,30.27,27.04,11,3,11,0.52
2013-12-15,54.7,41.4,31.3,40.2,33.0,29.2,93,73,46,30.47,30.27,9,3,13,0.00
2013-12-16,70.9,45.4,28.0,46.0,32.0,26.0,99,68,21,30.49,30.38,4,1,6,0.00
2013-12-17,71.4,48.9,31.6,47.3,36.4,30.1,99,67,27,30.48,30.39,6,1,6,0.00
2013-12-18,74.1,52.8,34.9,49.9,37.7,33.6,99,63,26,30.52,30.38,8,2,8,0.00
2013-12-23,46.6,35.5,30.4,32.5,28.4,26.3,86,75,55,30.25,30.10,10,4,10,0.00
2013-12-24,55.9,38.0,27.7,28.7,25.1,21.3,91,64,28,30.30,30.14,8,2,8,0.00
2013-12-25,53.4,37.9,25.9,30.7,24.8,20.3,82,62,30,30.17,30.06,7,1,7,0.00
2013-12-26,64.2,45.4,31.5,36.4,30.5,24.3,81,59,28,30.16,30.05,7,2,7,0.00
2013-12-27,55.8,46.0,37.9,37.1,32.8,25.4,86,62,33,30.20,30.05,6,2,6,0.00
2013-12-28,47.8,45.1,42.1,47.6,42.0,30.8,99,90,54,30.06,29.72,5,2,5,0.48
2013-12-29,63.9,50.1,42.3,49.9,42.7,36.8,99,80,39,29.89,29.73,5,1,5,0.01
2013-12-30,54.5,47.2,39.6,46.2,43.4,35.4,98,87,69,30.11,29.87,8,1,8,0.00
2013-12-31,48.9,41.0,35.4,37.1,34.7,31.7,89,79,59,30.19,30.06,7,2,7,0.00
2014-1-1,59.4,49.6,41.5,52.5,45.8,37.1,98,87,71,30.07,29.80,6,2,6,0.09
2014-1-2,55.9,48.2,32.2,55.7,39.3,20.8,99,73,46,30.13,29.73,17,5,17,0.09